Location: Natural Bridges National Monument
(37.6093°N, 109.9767°W)
Time: 20:15:51
(UTC-06:00)

Amateur Radio Satellites - All Passes

Search period start: 22 October 2014 19:45
Search period end: 23 October 2014 19:45
Location: Natural Bridges National Monument, 37.6093°N, 109.9767°W

Satellite Date Start Highest point End Downlink Frequencies (MHz)
Time Altitude Azimuth
STRAND 1 22 Oct 19:46:20 19:51:15 43° 99° (E) 19:56:07 ?
KITSAT 1 22 Oct 19:55:50 19:58:57 12° 28° (NNE) 20:02:03 435.175 FM
HO-68 22 Oct 20:37:03 20:43:31 38° 65° (ENE) 20:50:00 435.675 MHz FM
SO-67 22 Oct 20:39:54 20:41:51 14° 267° (W) 20:43:48 435.3500 MHz FM
ISS 22 Oct 20:50:03 20:53:23 66° 38° (NE) 20:56:42 145.800 FM
RS-15 22 Oct 20:53:58 20:56:54 11° 96° (E) 20:59:49 29.354 - 29.394 USB, Beacon 29.352 USB
SO-50 22 Oct 21:26:16 21:28:07 12° 41° (NE) 21:29:57 436.795 FM
STRAND 1 22 Oct 21:26:18 21:30:06 21° 295° (WNW) 21:33:53 ?
Oscar 11 22 Oct 21:27:46 21:31:08 22° 69° (ENE) 21:34:29 145.825 FM, Beacon 2401.500 USB
KITSAT 1 22 Oct 21:49:00 21:56:43 46° 53° (NE) 22:04:23 435.175 FM
ZACube-1 22 Oct 22:09:55 22:13:52 29° 70° (ENE) 22:17:47 437.345 MHz
UKube-1 22 Oct 22:19:01 22:23:22 80° 257° (WSW) 22:27:45 145.840 MHz, 145.915 MHz
HO-68 22 Oct 22:24:35 22:31:07 38° 262° (W) 22:37:44 435.675 MHz FM
ISS 22 Oct 22:28:38 22:29:40 11° 233° (SW) 22:30:41 145.800 FM
FUNcube-1 22 Oct 22:54:26 22:59:03 89° 77° (ENE) 23:03:38 145.950 - 145.970 MHz USB
RS-15 22 Oct 22:56:10 23:07:04 68° 114° (ESE) 23:17:50 29.354 - 29.394 USB, Beacon 29.352 USB
Oscar 11 22 Oct 23:03:24 23:07:08 28° 264° (W) 23:10:54 145.825 FM, Beacon 2401.500 USB
SO-50 22 Oct 23:04:34 23:09:26 79° 59° (ENE) 23:14:20 436.795 FM
KITSAT 1 22 Oct 23:44:40 23:51:57 39° 252° (WSW) 23:59:12 435.175 FM
ZACube-1 22 Oct 23:46:25 23:50:11 25° 265° (W) 23:53:57 437.345 MHz
MaSat-1 23 Oct 00:03:51 00:07:30 28° 108° (ESE) 00:10:55 437.345 MHz
UOSAT-12 23 Oct 00:40:16 00:44:58 66° 57° (ENE) 00:49:34 437.025 FM, 437.400 FM
SO-50 23 Oct 00:48:07 00:49:20 11° 254° (WSW) 00:50:34 436.795 FM
RS-15 23 Oct 01:10:23 01:20:10 36° 318° (NW) 01:30:00 29.354 - 29.394 USB, Beacon 29.352 USB
MaSat-1 23 Oct 01:39:50 01:43:09 22° 300° (WNW) 01:46:15 437.345 MHz
Oscar 10/S400 23 Oct 01:41:13 02:46:35 24° 243° (WSW) 05:34:14 145.825 - 145.975 CW/USB, Beacon 145.810 USB
Oscar 19 23 Oct 02:01:26 02:05:27 23° 95° (E) 02:09:26 437.125 CW, 437.150 USB
AO-27 23 Oct 02:15:46 02:17:41 12° 90° (E) 02:19:35 436.795 MHz FM
UOSAT-12 23 Oct 02:22:37 02:24:30 12° 253° (WSW) 02:26:22 437.025 FM, 437.400 FM
Oscar 16 23 Oct 02:46:01 02:51:07 67° 102° (ESE) 02:56:12 437.025 USB, Beacon 2401.1428
AO-Echo 23 Oct 02:57:33 03:02:38 44° 99° (E) 03:07:41 ?
JAS-1B 23 Oct 02:58:20 03:05:00 69° 103° (ESE) 03:13:00 435.800 - 435.900 CW/SSB
Uribyol 2 23 Oct 03:02:06 03:06:57 38° 98° (E) 03:11:45 436.500 FM
ITAMSAT 1 23 Oct 03:07:33 03:12:29 40° 99° (E) 03:17:21 435.822 SSB
Gurwin Techsat 1B 23 Oct 03:15:53 03:20:15 25° 95° (E) 03:24:35 435.225 FM
TMSAT-1 23 Oct 03:28:30 03:32:48 25° 95° (E) 03:37:03 436.925 FM
RS-15 23 Oct 03:31:25 03:37:17 15° 351° (N) 03:43:12 29.354 - 29.394 USB, Beacon 29.352 USB
Oscar 19 23 Oct 03:40:10 03:44:51 37° 290° (WNW) 03:49:31 437.125 CW, 437.150 USB
AO-27 23 Oct 03:52:27 03:57:41 73° 286° (WNW) 04:02:52 436.795 MHz FM
Sapphire 23 Oct 04:22:41 04:27:45 43° 111° (ESE) 04:32:52 437.095 MHz 1200 baud AX-25 AFSK
Oscar 16 23 Oct 04:27:16 04:29:52 14° 298° (WNW) 04:32:29 437.025 USB, Beacon 2401.1428
AO-Echo 23 Oct 04:37:03 04:41:03 22° 294° (WNW) 04:45:02 ?
Uribyol 2 23 Oct 04:42:04 04:46:11 24° 294° (WNW) 04:50:16 436.500 FM
Uosat F 23 Oct 04:42:05 04:45:15 17° 93° (E) 04:48:23 435.120 FM
PCSat 23 Oct 04:45:04 04:50:27 76° 115° (ESE) 04:55:53 145.825 MHz
ITAMSAT 1 23 Oct 04:47:39 04:51:41 23° 294° (WNW) 04:55:42 435.822 SSB
JAS-1B 23 Oct 04:50:34 04:55:14 21° 296° (WNW) 05:00:26 435.800 - 435.900 CW/SSB
Gurwin Techsat 1B 23 Oct 04:55:25 05:00:14 36° 290° (WNW) 05:05:03 435.225 FM
JAS-2 23 Oct 05:06:32 05:09:24 12° 86° (E) 05:12:16 435.800 - 435.900 CW/SSB, 435.910 FM
TMSAT-1 23 Oct 05:07:54 05:12:46 37° 290° (WNW) 05:17:36 436.925 FM
OPAL 23 Oct 05:18:51 05:23:53 56° 71° (ENE) 05:28:53 ?
AO-7 23 Oct 05:21:36 05:29:45 56° 103° (ESE) 05:37:53 29.400 - 29.500 MHz
RS-15 23 Oct 05:47:36 05:55:47 22° 29° (NNE) 06:04:08 29.354 - 29.394 USB, Beacon 29.352 USB
Sapphire 23 Oct 06:06:52 06:11:19 26° 308° (NW) 06:15:49 437.095 MHz 1200 baud AX-25 AFSK
Uosat F 23 Oct 06:19:24 06:24:17 51° 288° (WNW) 06:29:09 435.120 FM
PCSat 23 Oct 06:31:07 06:34:28 16° 314° (NW) 06:37:51 145.825 MHz
JAS-2 23 Oct 06:47:36 06:55:24 74° 102° (ESE) 07:03:12 435.800 - 435.900 CW/SSB, 435.910 FM
OPAL 23 Oct 06:59:57 07:03:03 16° 265° (W) 07:06:08 ?
STRAND 1 23 Oct 07:00:19 07:05:16 52° 72° (ENE) 07:10:15 ?
Hamsat 23 Oct 07:07:32 07:11:45 80° 102° (ESE) 07:15:57 145.90 MHz
AO-7 23 Oct 07:15:03 07:22:05 32° 300° (WNW) 07:29:08 29.400 - 29.500 MHz
RS-15 23 Oct 07:59:33 08:10:43 68° 56° (NE) 08:22:21 29.354 - 29.394 USB, Beacon 29.352 USB
Saudisat 1A 23 Oct 08:02:57 08:07:01 39° 115° (ESE) 08:11:07 436.775 MHz
SO-67 23 Oct 08:03:23 08:06:39 39° 98° (E) 08:09:53 435.3500 MHz FM
PANSAT 23 Oct 08:11:19 08:12:26 11° 162° (SSE) 08:13:33 not established
JAS-2 23 Oct 08:33:53 08:39:39 24° 298° (WNW) 08:45:29 435.800 - 435.900 CW/SSB, 435.910 FM
STRAND 1 23 Oct 08:41:31 08:44:44 17° 267° (W) 08:47:58 ?
SO-67 23 Oct 09:38:49 09:39:13 10° 293° (WNW) 09:39:37 435.3500 MHz FM
Saudisat 1A 23 Oct 09:43:20 09:46:42 21° 312° (NW) 09:50:06 436.775 MHz
PANSAT 23 Oct 09:49:07 09:51:56 20° 175° (S) 09:54:45 not established
MaSat-1 23 Oct 09:52:15 09:54:15 20° 59° (ENE) 09:56:09 437.345 MHz
HO-68 23 Oct 09:53:40 10:00:34 47° 100° (E) 10:07:24 435.675 MHz FM
UKube-1 23 Oct 10:09:59 10:13:11 20° 95° (E) 10:16:22 145.840 MHz, 145.915 MHz
RS-15 23 Oct 10:12:53 10:22:17 32° 255° (WSW) 10:32:04 29.354 - 29.394 USB, Beacon 29.352 USB
FUNcube-1 23 Oct 10:46:43 10:49:43 19° 94° (E) 10:52:41 145.950 - 145.970 MHz USB
Oscar 11 23 Oct 10:52:11 10:56:26 57° 100° (E) 11:00:40 145.825 FM, Beacon 2401.500 USB
PANSAT 23 Oct 11:28:48 11:31:31 19° 188° (S) 11:34:14 not established
ZACube-1 23 Oct 11:36:49 11:41:05 77° 102° (ESE) 11:45:15 437.345 MHz
HO-68 23 Oct 11:41:48 11:47:59 32° 297° (WNW) 11:54:08 435.675 MHz FM
UKube-1 23 Oct 11:45:30 11:49:24 32° 290° (WNW) 11:53:17 145.840 MHz, 145.915 MHz
Oscar 10/S400 23 Oct 11:56:21 12:17:39 25° 153° (SSE) 12:31:56 145.825 - 145.975 CW/USB, Beacon 145.810 USB
KITSAT 1 23 Oct 12:15:19 12:22:38 40° 109° (ESE) 12:29:58 435.175 FM
FUNcube-1 23 Oct 12:22:24 12:26:10 31° 289° (WNW) 12:29:51 145.950 - 145.970 MHz USB
Oscar 11 23 Oct 12:30:31 12:32:06 12° 296° (WNW) 12:33:40 145.825 FM, Beacon 2401.500 USB
Sapphire 23 Oct 13:12:47 13:17:14 25° 52° (NE) 13:21:40 437.095 MHz 1200 baud AX-25 AFSK
Oscar 19 23 Oct 13:16:28 13:20:49 28° 68° (ENE) 13:25:10 437.125 CW, 437.150 USB
SO-50 23 Oct 13:17:57 13:22:05 38° 114° (ESE) 13:26:20 436.795 FM
ISS 23 Oct 13:30:39 13:33:56 62° 137° (SE) 13:37:14 145.800 FM
AO-27 23 Oct 13:31:39 13:34:52 17° 63° (ENE) 13:38:06 436.795 MHz FM
PCSat 23 Oct 13:35:07 13:40:13 40° 56° (ENE) 13:45:17 145.825 MHz
JAS-1B 23 Oct 13:43:26 13:49:09 44° 71° (ENE) 13:54:30 435.800 - 435.900 CW/SSB
Oscar 16 23 Oct 14:00:59 14:06:09 80° 75° (ENE) 14:11:19 437.025 USB, Beacon 2401.1428
AO-Echo 23 Oct 14:08:44 14:13:20 44° 71° (ENE) 14:18:05 ?
KITSAT 1 23 Oct 14:10:14 14:17:53 45° 307° (NW) 14:25:35 435.175 FM
Uribyol 2 23 Oct 14:18:00 14:23:00 48° 72° (ENE) 14:28:01 436.500 FM
ITAMSAT 1 23 Oct 14:23:37 14:28:38 51° 72° (ENE) 14:33:41 435.822 SSB
AO-7 23 Oct 14:31:58 14:35:14 13° 48° (NE) 14:38:29 29.400 - 29.500 MHz
Gurwin Techsat 1B 23 Oct 14:35:04 14:39:47 34° 69° (ENE) 14:44:31 435.225 FM
TMSAT-1 23 Oct 14:47:21 14:52:00 32° 69° (ENE) 14:56:40 436.925 FM
UOSAT-12 23 Oct 14:49:57 14:53:58 30° 113° (ESE) 14:58:04 437.025 FM, 437.400 FM
Oscar 19 23 Oct 14:55:29 15:00:02 31° 263° (W) 15:04:36 437.125 CW, 437.150 USB
Sapphire 23 Oct 14:55:41 15:00:50 45° 249° (WSW) 15:05:57 437.095 MHz 1200 baud AX-25 AFSK
SO-50 23 Oct 14:59:10 15:02:45 23° 312° (NW) 15:06:25 436.795 FM
ISS 23 Oct 15:08:29 15:10:53 18° 334° (NNW) 15:13:18 145.800 FM
AO-27 23 Oct 15:08:46 15:13:52 58° 259° (W) 15:19:02 436.795 MHz FM
PCSat 23 Oct 15:18:59 15:23:23 26° 253° (WSW) 15:27:45 145.825 MHz
JAS-1B 23 Oct 15:35:29 15:40:01 21° 265° (W) 15:44:19 435.800 - 435.900 CW/SSB
Oscar 16 23 Oct 15:45:14 15:46:01 10° 270° (W) 15:46:49 437.025 USB, Beacon 2401.1428
AO-Echo 23 Oct 15:49:04 15:52:19 18° 268° (W) 15:55:40 ?
Uosat F 23 Oct 15:53:37 15:57:11 20° 65° (ENE) 16:00:46 435.120 FM
Uribyol 2 23 Oct 15:59:07 16:02:41 19° 267° (W) 16:06:17 436.500 FM
ITAMSAT 1 23 Oct 16:04:59 16:08:23 17° 267° (W) 16:11:47 435.822 SSB
KITSAT 1 23 Oct 16:12:42 16:15:42 12° 332° (NNW) 16:18:42 435.175 FM
Gurwin Techsat 1B 23 Oct 16:15:15 16:19:43 27° 264° (W) 16:24:13 435.225 FM
AO-7 23 Oct 16:18:16 16:26:23 64° 68° (ENE) 16:34:32 29.400 - 29.500 MHz
TMSAT-1 23 Oct 16:27:20 16:31:52 29° 264° (W) 16:36:26 436.925 FM
UOSAT-12 23 Oct 16:30:01 16:34:04 29° 309° (NW) 16:38:11 437.025 FM, 437.400 FM
Saudisat 1A 23 Oct 16:31:42 16:35:03 21° 48° (NE) 16:38:23 436.775 MHz
JAS-2 23 Oct 16:59:15 17:03:53 24° 62° (ENE) 17:08:57 435.800 - 435.900 CW/SSB, 435.910 FM
Uosat F 23 Oct 17:30:50 17:35:37 44° 261° (W) 17:40:26 435.120 FM
OPAL 23 Oct 17:32:09 17:35:09 16° 95° (E) 17:38:07 ?
Hamsat 23 Oct 17:58:54 18:02:53 42° 73° (ENE) 18:06:51 145.90 MHz
Saudisat 1A 23 Oct 18:10:36 18:14:46 41° 245° (WSW) 18:18:54 436.775 MHz
AO-7 23 Oct 18:13:03 18:19:36 26° 265° (W) 18:26:13 29.400 - 29.500 MHz
ISS 23 Oct 18:26:18 18:26:45 10° 15° (NNE) 18:27:13 145.800 FM
SO-67 23 Oct 18:36:45 18:37:21 10° 67° (ENE) 18:37:57 435.3500 MHz FM
JAS-2 23 Oct 18:42:54 18:48:27 50° 262° (W) 18:54:45 435.800 - 435.900 CW/SSB, 435.910 FM
OPAL 23 Oct 19:09:30 19:14:18 51° 290° (WNW) 19:19:04 ?
STRAND 1 23 Oct 19:13:44 19:17:31 20° 94° (E) 19:21:17 ?
Hamsat 23 Oct 19:36:50 19:39:00 14° 268° (W) 19:41:10 145.90 MHz
